GSAT0201 (GALILEO 5) (40128 NORAD) Tracking and Keplerian Element Data

This shows tracking and keplerian element data for the satellite.

Feedback or suggestion? Click here.




ElementValue
Catalog40128
NameGSAT0201 (GALILEO 5)
Epoch Orbit2690
Epoch Day317.27414664
Epoch Year2018
RAAN24.6268
Inclination50.5226
Eccentricity0.165667
Argument of Perigee80.6416
Mean Anonmoly297.6595
Mean Motion1.85519947
Decay Rate-1.11E-06
L11 40128U 14050A 18317.27414664 -.00000111 00000-0 00000-0 0 9993
L22 40128 50.5226 24.6268 1656670 80.6416 297.6595 1.85519947 26900

Live tracking and technical data element details for GSAT0201 (GALILEO 5) (NORAD 40128). GSAT0201 (GALILEO 5) can be tracked NOW for your location showing map with azimuth and elevation plus other details from your city location.

Track the satellite on the map from your city or location and see movement details for azimuth, elevation, latitude, longitude, range, height, and movement on the map or in text.







IsCatalogInMostPopularTable: catalog: 40128, numindb: 115
Update: records affected: 1



GetName: 40128 GSAT0201 (GALILEO 5)

Hit Count: updated at: Fri, 16 Nov 2018 05:50:22 GMT